User: anonymous   Login
Location: Caltech
(34.1382°N, 118.1253°W)
Time: 16:39:19
(UTC-08:00)
Language:

Cosmos 2219 - Orbit

View from above orbital plane
View from above orbital plane
View from above satellite
View from above satellite

Ground track
Ground track

The orbit data is extracted from the following two-line orbital elements,

1 22219U 92076A   18051.43154744 +.00000278 +00000-0 +17212-3 0  9990
2 22219 071.0594 039.1674 0017694 003.7634 356.3618 14.13621077303295
Epoch (UTC): 20 February 2018 10:21:25
Eccentricity: 0.0017694
inclination: 71.0594°
perigee height: 834 km
apogee height: 860 km
right ascension of ascending node: 39.1674°
argument of perigee: 3.7634°
revolutions per day: 14.13621077
mean anomaly at epoch: 356.3618°
orbit number at epoch: 30329

The dashed part of the orbit path shows where the satellite is in the earth's shadow,  

DLR